Temperature
9 11 11 11 11 12 12 12 12 12 11 11 12 12 12 12 10 11 11 10 10 9 9 9 9 9 10 10 10 10 10 10 10 9 9 9 9 9 9 9 9 9 9 9
10 10 10 10 10 10 11 11 11 11 10 10 11 11 12 11 11 10 10 10 10 9 9 9 9 9 9 9 9 9 9 9 9 9 9 9 9 9 9 9 9 9 9 9
10 10 9 9 9 10 10 11 11 10 10 9 10 12 12 11 10 9 9 9 9 9 9 9 8 8 9 9 9 9 9 9 9 8 8 8 8 8 8 8 8 8 8 8
9 9 8 9 9 9 10 9 9 9 10 11 10 12 13 11 10 10 10 9 9 9 8 8 8 8 8 8 8 8 8 8 8 8 8 8 8 8 8 8 8 8 7 8
8 8 8 8 8 9 9 8 9 9 9 9 10 10 13 11 11 11 10 9 9 8 8 8 8 8 8 8 8 8 8 8 8 8 7 7 7 7 7 7 7 7 7 7
8 7 7 8 7 8 7 8 8 8 9 9 10 10 12 12 11 11 10 9 8 7 7 7 7 7 7 7 8 8 8 7 7 7 7 7 7 7 6 6 7 7 7 7
7 7 7 7 7 7 8 8 9 9 9 10 9 9 11 11 10 9 9 8 7 6 6 6 7 7 7 7 7 7 7 7 7 7 6 6 6 6 6 6 6 6 6 6
7 8 7 6 7 7 7 8 9 9 10 11 8 9 11 10 8 7 7 6 6 6 6 6 6 6 6 7 7 7 7 6 6 6 6 6 6 6 6 5 5 6 6 6
7 7 6 5 6 7 7 7 8 8 7 8 10 10 10 9 8 7 7 6 6 5 5 6 6 6 6 6 6 6 6 6 6 6 5 5 5 5 5 5 5 5 5 5
6 6 6 5 6 6 7 7 7 7 8 9 10 10 11 10 9 8 7 6 6 5 5 5 5 5 6 6 6 5 5 5 5 5 5 5 5 5 5 4 4 4 5 5
5 5 5 5 5 6 5 5 6 7 7 9 9 11 10 9 9 8 7 6 5 5 4 4 5 5 5 5 5 5 5 5 5 5 5 5 4 4 4 4 4 4 4 4
5 5 5 5 5 4 5 6 6 6 6 7 8 10 8 8 7 7 7 5 5 4 4 4 4 4 5 5 5 5 5 5 5 4 4 4 4 4 4 4 4 4 4 4
4 4 5 6 5 4 4 4 4 5 6 6 7 9 7 7 6 6 5 5 4 4 4 4 4 4 4 4 4 4 4 4 4 4 4 4 3 3 3 3 3 3 3 3
4 3 5 6 6 5 4 3 3 4 5 6 7 8 8 7 7 6 5 4 4 4 3 3 3 3 4 4 4 4 4 4 4 4 3 3 3 3 3 3 3 3 3 3
3 3 3 4 4 4 3 3 3 3 5 6 6 6 7 7 7 6 5 4 4 4 3 3 3 3 3 3 3 3 3 3 3 3 3 3 2 2 2 2 2 2 2 2
2 2 2 2 3 3 3 3 3 3 4 5 5 5 6 6 5 5 4 4 3 3 3 3 3 3 3 3 3 3 3 3 3 3 3 2 2 2 2 2 2 2 2 2
1 1 2 4 2 2 4 4 3 3 3 4 5 6 5 5 4 4 4 3 3 3 3 3 3 3 3 3 3 3 3 3 2 2 2 2 2 2 2 1 1 1 1 1
1 1 2 3 2 3 5 3 3 3 3 3 4 4 4 4 3 3 3 3 3 2 2 3 3 3 3 2 2 2 2 2 2 2 2 2 2 2 1 1 1 1 1 1
0 1 2 2 3 4 5 3 2 2 3 3 3 3 3 2 2 3 3 2 2 2 2 2 3 2 2 2 2 2 2 2 1 1 1 1 1 1 1 1 1 1 0 0
-1 0 1 2 3 3 5 3 1 2 3 3 2 2 2 2 4 4 2 2 2 2 2 2 2 2 2 2 2 2 1 1 1 1 1 1 1 1 1 0 0 0 -0 -0
-0 -0 1 1 2 4 3 1 1 3 4 2 2 2 1 2 3 2 2 2 1 2 2 2 2 2 2 2 2 1 1 1 1 1 0 0 0 0 -0 -0 -0 -0 -1 -1
1 1 0 1 2 3 1 1 2 3 2 1 1 1 1 1 1 1 1 1 1 1 1 1 1 1 1 1 1 1 1 1 0 0 0 -0 -0 -0 -1 -1 -1 -1 -1 -1
0 1 2 2 3 2 1 1 1 1 1 1 1 0 0 0 0 0 0 1 0 1 1 1 1 1 1 1 0 0 0 0 -0 -0 -0 -0 -1 -1 -1 -1 -1 -1 -2 -2
-0 -1 -0 -0 1 1 0 0 0 0 0 0 0 0 0 -0 -0 -0 -0 0 0 0 0 0 0 0 0 0 -0 -0 -0 -1 -1 -1 -1 -1 -1 -1 -1 -1 -2 -2 -2 -2
0 -1 -1 -0 0 0 0 0 0 0 0 -0 -0 -0 -0 -0 -0 -0 -0 -0 -0 -0 -0 -0 -0 -0 -0 -0 -0 -0 -1 -1 -1 -1 -1 -1 -1 -1 -1 -2 -2 -2 -2 -2
-1 -1 -0 1 1 0 1 0 0 -0 -0 -0 -1 -0 -0 -1 -1 -1 -1 -1 -1 -1 -1 -1 -1 -1 -1 -1 -1 -1 -1 -1 -1 -1 -1 -2 -2 -2 -2 -2 -2 -2 -3 -3
Wind_Speed
0 3 5 6 7 5 5 7 8 6 4 6 11 14 13 9 9 9 8 8 8 7 5 4 4 4 4 4 4 4 4 4 3 3 3 2 2 2 1 1 1 1 1 2
2 4 4 3 4 5 6 7 8 5 4 5 10 15 12 10 11 10 9 9 8 7 5 5 4 4 5 5 5 5 5 4 4 3 3 2 2 2 2 1 1 1 1 1
4 1 2 3 4 5 7 9 7 6 5 6 8 11 9 7 8 8 8 8 8 8 7 6 6 5 5 5 5 4 5 4 4 4 3 2 1 1 1 1 1 1 2 2
3 2 1 4 5 6 7 6 7 7 7 5 4 7 7 7 8 9 9 8 8 7 7 6 6 6 6 5 5 5 5 5 5 4 5 5 4 3 2 2 2 1 2 2
2 2 3 4 4 5 4 2 5 6 7 7 7 7 7 6 8 9 9 8 7 6 6 6 6 6 5 5 4 4 5 5 5 5 6 6 5 3 2 2 2 2 1 1
3 2 2 3 2 3 2 1 2 3 4 7 8 8 7 6 7 6 5 5 4 4 4 4 4 5 4 4 4 4 5 5 5 5 5 6 6 4 4 3 3 2 2 1
2 2 1 1 1 2 2 3 2 4 5 6 3 7 9 4 4 5 5 4 3 3 4 4 5 5 5 4 4 4 5 5 5 5 5 5 5 5 5 4 4 3 2 2
3 4 3 2 3 4 5 4 4 4 5 4 4 8 5 2 3 3 3 2 2 2 3 4 4 5 5 5 4 4 5 5 5 5 5 5 5 4 3 4 3 3 3 3
3 3 1 1 2 3 4 5 3 3 3 5 5 6 6 3 2 2 2 1 2 2 3 3 3 4 4 4 4 5 5 5 5 5 5 4 5 4 4 3 3 3 3 2
2 3 2 1 1 1 2 2 3 4 4 6 5 6 4 2 2 2 3 3 2 2 1 2 3 3 3 3 4 3 4 4 5 5 4 4 4 4 4 4 4 3 3 3
3 3 2 2 4 5 3 3 3 4 4 5 5 4 1 3 3 3 4 4 3 3 2 2 3 3 3 2 3 3 3 3 4 4 4 4 4 4 4 4 4 3 3 3
2 2 4 5 2 3 4 5 5 4 4 5 6 5 1 3 4 5 5 4 3 3 3 3 3 2 2 3 2 3 3 3 3 4 4 4 4 4 4 4 4 3 3 3
2 3 3 3 2 2 4 4 5 4 4 6 6 6 1 2 4 5 5 4 3 3 3 3 3 3 3 2 2 3 3 3 3 3 4 4 4 4 4 4 4 4 4 3
2 3 6 7 4 3 5 6 6 6 6 7 10 12 9 8 8 7 5 4 4 4 4 4 4 4 3 3 3 2 2 2 3 4 4 4 5 5 4 4 4 4 4 3
2 4 6 8 8 6 8 9 10 11 11 10 12 14 15 12 11 9 7 6 5 5 5 5 5 5 4 4 3 3 3 3 3 4 4 5 4 4 4 4 4 4 4 4
2 4 4 7 8 8 10 12 13 14 13 15 16 17 14 13 10 10 9 7 6 6 6 6 6 5 5 5 4 4 3 3 3 4 4 4 4 4 4 5 4 4 4 3
3 3 4 6 5 6 10 11 12 9 10 11 14 14 10 10 10 9 8 7 7 7 6 6 6 6 6 5 5 4 4 3 4 4 4 3 4 4 4 4 4 4 4 3
5 4 3 4 4 9 5 2 7 10 11 11 12 12 11 11 10 8 8 8 8 7 7 6 5 5 5 4 4 3 3 3 4 4 4 4 4 4 4 4 4 4 4 4
8 6 5 4 6 10 6 3 4 7 9 9 11 12 10 9 8 7 6 6 8 8 7 6 5 5 4 4 3 3 3 3 4 4 4 4 4 4 4 5 5 4 4 4
4 6 6 5 6 7 4 1 1 3 7 5 7 8 8 6 5 5 5 6 6 6 5 4 3 3 3 3 3 4 4 4 5 5 5 4 4 5 5 5 4 4 4 4
4 5 8 9 8 8 4 1 4 5 5 3 5 6 5 5 6 6 6 6 6 5 4 3 2 3 3 3 3 4 4 5 5 4 4 4 5 5 5 5 4 4 4 4
7 6 7 7 8 8 2 4 5 5 4 4 5 5 6 6 7 6 6 6 6 5 4 3 2 3 2 2 3 4 5 4 3 3 4 4 4 4 4 4 4 4 4 4
7 7 5 7 7 4 3 5 5 4 5 5 6 6 6 7 7 6 6 6 6 5 4 3 3 3 3 3 3 4 4 3 3 3 4 4 4 4 4 5 5 4 4 4
5 4 5 6 8 8 7 8 8 7 7 7 7 7 6 7 7 7 6 6 6 5 4 3 3 4 4 4 4 4 3 3 3 4 4 4 4 4 4 4 4 4 5 5
6 5 6 9 9 8 8 8 9 8 7 7 7 7 7 7 7 7 7 6 6 5 4 4 4 5 5 4 4 3 3 3 4 4 4 4 4 4 4 4 4 5 5 5
6 7 7 8 7 7 8 7 7 7 8 8 8 8 7 7 7 7 6 6 5 5 4 4 5 5 5 4 4 4 3 4 4 4 4 4 4 3 3 3 3 3 5 5
Wind_Direction
127 205 219 223 228 254 243 241 255 269 281 262 256 264 266 258 248 243 239 238 236 236 232 215 210 206 202 199 201 203 198 195 192 195 197 198 208 212 208 222 240 239 248 243
189 236 249 243 226 229 234 246 260 273 282 271 274 273 268 252 237 236 237 238 238 232 224 212 206 203 203 199 200 201 200 199 199 200 202 207 209 215 221 215 227 242 249 238
224 285 235 218 219 229 244 245 253 266 292 262 282 272 243 235 234 235 238 238 235 230 224 216 211 208 206 202 204 204 201 199 199 195 183 171 184 213 218 228 233 245 251 243
246 251 221 223 236 236 250 251 251 257 272 270 268 276 249 227 231 233 236 235 232 229 226 218 216 213 212 210 205 205 203 201 198 194 190 188 198 212 227 226 234 242 246 246
241 263 239 239 247 239 251 265 248 255 257 268 245 253 262 222 237 234 231 230 230 229 225 220 219 217 211 205 198 197 198 201 199 200 202 203 206 212 212 210 215 220 238 242
266 284 270 259 274 235 197 204 235 233 239 251 239 241 265 231 239 241 235 238 236 228 222 222 218 208 200 192 188 188 191 198 199 203 208 211 209 207 203 207 211 222 226 233
256 226 231 251 193 158 212 213 226 224 224 243 221 240 256 267 261 265 263 253 240 230 219 213 209 203 198 193 190 189 191 198 201 201 209 214 213 210 211 211 212 212 218 236
241 247 208 235 236 221 212 226 235 245 246 261 222 238 256 313 302 278 257 241 243 231 228 222 212 206 198 193 193 195 198 203 203 202 208 209 205 207 211 211 211 212 216 223
240 256 349 285 292 225 198 219 255 264 276 268 243 260 281 271 267 255 237 230 241 241 243 233 213 204 196 193 198 200 202 207 206 204 206 204 202 202 205 209 213 214 211 210
240 257 272 305 240 263 277 203 197 218 236 250 254 256 265 279 260 243 243 238 239 249 251 236 214 202 202 200 199 198 201 210 211 207 205 206 207 207 207 208 210 215 213 205
231 238 260 229 224 228 191 198 223 230 254 252 257 257 266 264 286 272 260 253 245 241 245 238 221 208 203 200 197 197 199 204 206 205 204 204 205 205 207 211 211 212 214 211
219 234 251 253 280 301 240 227 210 229 236 242 260 270 360 287 290 284 279 268 255 246 238 229 220 209 202 203 203 204 205 205 207 204 202 206 204 201 206 214 212 208 210 210
192 200 242 236 207 216 239 234 234 246 242 236 245 262 17 307 296 293 286 278 261 252 241 235 232 226 218 218 217 216 215 212 206 200 202 205 204 203 208 214 212 209 208 207
217 215 232 250 274 229 241 243 228 224 235 243 247 264 278 292 300 301 292 278 270 259 247 243 243 242 236 233 231 231 231 225 213 201 203 208 208 206 208 212 212 213 211 210
215 241 245 260 267 262 256 248 232 230 238 246 261 265 274 283 289 293 289 279 275 272 261 251 247 247 244 243 242 238 232 226 213 205 208 213 212 208 205 207 211 211 212 218
224 246 255 262 260 261 266 254 241 241 245 250 264 271 277 284 288 287 283 278 275 275 270 264 257 253 248 244 240 234 228 222 212 211 216 211 207 205 206 206 204 201 203 209
209 213 240 261 269 271 261 240 225 231 233 238 253 266 284 288 286 285 286 276 272 272 272 266 260 253 248 245 239 233 228 216 211 217 220 213 206 205 206 202 201 201 203 207
209 216 239 262 257 246 261 223 223 232 246 243 256 271 278 281 289 286 281 275 274 277 274 270 265 258 252 248 238 228 221 212 212 217 219 216 209 208 206 206 209 209 206 207
218 215 227 234 252 267 268 244 224 228 256 249 254 266 281 295 292 284 291 282 278 280 278 272 264 256 249 242 231 216 217 217 219 221 221 218 211 208 207 209 212 210 204 207
210 215 228 231 245 252 272 209 217 222 259 256 247 263 280 290 279 295 327 315 300 294 289 284 278 264 243 236 216 211 223 222 228 229 227 221 215 211 212 213 214 212 206 209
195 211 224 233 245 261 279 214 171 219 275 295 260 259 257 256 275 306 319 316 310 303 297 291 276 258 244 230 212 220 231 234 238 235 228 223 219 217 214 211 211 207 204 204
206 208 214 218 235 252 180 163 207 264 317 299 287 278 269 281 291 298 308 312 315 313 306 293 276 273 267 238 221 231 241 244 242 231 225 224 222 217 212 205 207 206 202 203
223 222 223 219 237 287 204 229 270 289 284 289 294 292 286 285 285 293 299 304 304 301 298 287 270 275 278 256 233 239 248 239 229 225 226 225 221 217 211 207 205 205 205 206
241 239 241 255 263 274 269 271 281 281 279 286 286 284 276 275 283 289 292 296 297 293 288 284 276 275 280 274 260 252 255 238 222 225 227 221 216 215 211 209 208 209 209 210
251 221 241 258 273 283 272 268 278 282 285 286 284 276 270 269 277 281 284 286 288 286 285 278 269 269 275 279 272 267 254 233 226 226 226 223 220 216 213 215 215 217 220 217
235 226 233 253 261 261 275 288 286 279 283 283 283 281 274 263 268 275 278 281 281 281 281 279 277 274 276 275 271 265 247 230 220 223 225 223 218 214 212 213 225 226 229 225
Height
1498 1497 1494 1494 1495 1494 1492 1492 1491 1493 1496 1495 1490 1487 1486 1488 1489 1488 1488 1489 1489 1490 1490 1491 1491 1492 1493 1494 1495 1496 1497 1498 1499 1500 1501 1502 1502 1503 1504 1504 1505 1506 1506 1506
1496 1496 1496 1497 1497 1496 1494 1493 1492 1494 1497 1495 1489 1485 1482 1483 1483 1484 1484 1485 1485 1486 1487 1487 1488 1489 1490 1491 1492 1493 1493 1494 1495 1496 1497 1498 1499 1500 1501 1501 1502 1502 1503 1503
1494 1496 1497 1497 1496 1496 1494 1492 1492 1494 1495 1494 1491 1477 1476 1478 1480 1480 1481 1481 1481 1482 1482 1483 1484 1485 1487 1488 1489 1489 1490 1491 1492 1493 1494 1495 1496 1497 1498 1498 1499 1499 1500 1501
1496 1497 1497 1496 1495 1494 1492 1495 1495 1495 1494 1487 1490 1476 1468 1472 1475 1476 1476 1477 1478 1478 1479 1480 1481 1482 1483 1484 1485 1486 1487 1488 1489 1490 1491 1492 1492 1493 1494 1495 1496 1496 1497 1498
1495 1497 1496 1495 1495 1496 1494 1497 1496 1495 1494 1490 1486 1484 1464 1470 1469 1469 1471 1473 1474 1475 1476 1477 1478 1479 1480 1481 1482 1483 1484 1485 1486 1486 1487 1488 1489 1490 1491 1492 1492 1493 1493 1494
1497 1499 1498 1496 1497 1497 1497 1497 1496 1495 1492 1489 1481 1480 1462 1462 1463 1465 1468 1470 1471 1472 1473 1474 1475 1476 1477 1478 1479 1480 1481 1482 1483 1484 1484 1485 1486 1487 1488 1489 1489 1489 1490 1491
1495 1496 1498 1498 1496 1497 1496 1493 1491 1489 1486 1477 1482 1480 1464 1461 1465 1466 1468 1469 1470 1470 1471 1471 1472 1473 1474 1475 1476 1477 1478 1479 1480 1481 1481 1482 1483 1484 1485 1485 1486 1486 1487 1487
1492 1491 1495 1496 1494 1493 1493 1491 1487 1483 1476 1471 1482 1474 1460 1464 1467 1467 1468 1468 1468 1468 1469 1469 1470 1470 1471 1472 1473 1474 1475 1476 1477 1477 1478 1479 1480 1481 1481 1482 1483 1483 1484 1485
1491 1490 1496 1496 1496 1494 1492 1490 1490 1488 1488 1482 1469 1467 1462 1463 1464 1465 1466 1467 1467 1467 1467 1467 1468 1468 1469 1470 1471 1472 1472 1473 1474 1474 1475 1476 1477 1478 1478 1479 1480 1480 1481 1482
1494 1495 1495 1497 1496 1496 1494 1491 1491 1488 1482 1472 1464 1464 1458 1457 1459 1462 1464 1465 1466 1465 1466 1466 1466 1466 1467 1468 1469 1469 1470 1470 1471 1471 1472 1473 1474 1475 1476 1476 1477 1478 1478 1479
1496 1495 1495 1495 1493 1490 1494 1494 1490 1486 1482 1473 1465 1458 1458 1459 1460 1461 1462 1463 1464 1464 1464 1464 1464 1465 1465 1465 1466 1467 1467 1468 1468 1468 1469 1470 1471 1472 1473 1474 1474 1475 1475 1476
1495 1494 1491 1491 1494 1494 1491 1488 1488 1485 1483 1480 1469 1462 1460 1462 1462 1462 1462 1462 1462 1463 1463 1463 1463 1463 1463 1463 1463 1464 1464 1465 1465 1466 1466 1467 1468 1469 1470 1470 1471 1471 1472 1473
1495 1495 1489 1485 1492 1495 1492 1490 1490 1488 1483 1478 1471 1463 1462 1463 1462 1462 1462 1462 1461 1461 1461 1461 1461 1460 1460 1460 1461 1461 1461 1461 1462 1462 1463 1464 1464 1465 1466 1467 1468 1468 1469 1469
1494 1493 1489 1480 1477 1484 1488 1489 1489 1487 1480 1473 1468 1461 1459 1460 1460 1460 1460 1460 1460 1459 1459 1458 1458 1458 1458 1458 1458 1458 1458 1458 1459 1459 1460 1460 1461 1462 1463 1464 1464 1465 1466 1466
1494 1491 1489 1486 1485 1486 1485 1484 1485 1483 1477 1472 1464 1463 1458 1458 1458 1459 1458 1458 1457 1457 1456 1456 1456 1456 1455 1455 1455 1455 1455 1456 1456 1456 1457 1457 1458 1459 1460 1460 1461 1462 1463 1463
1493 1491 1490 1487 1484 1484 1482 1478 1478 1477 1474 1470 1466 1461 1457 1457 1457 1457 1456 1455 1454 1453 1453 1453 1453 1452 1452 1452 1452 1452 1453 1453 1453 1453 1454 1454 1455 1456 1456 1457 1458 1459 1459 1460
1491 1490 1487 1478 1483 1482 1471 1468 1470 1470 1468 1466 1461 1456 1456 1456 1455 1454 1453 1453 1451 1450 1450 1449 1449 1449 1449 1449 1450 1449 1450 1450 1450 1450 1451 1451 1452 1452 1453 1454 1455 1455 1456 1456
1490 1489 1487 1480 1481 1475 1459 1464 1464 1464 1462 1462 1459 1456 1455 1454 1452 1452 1451 1450 1448 1448 1447 1446 1446 1446 1446 1446 1446 1447 1447 1447 1447 1448 1448 1449 1449 1449 1450 1450 1451 1452 1452 1453
1486 1486 1483 1479 1472 1460 1458 1461 1462 1462 1457 1456 1455 1453 1452 1451 1450 1448 1447 1447 1446 1445 1444 1444 1443 1443 1443 1443 1444 1444 1444 1444 1444 1445 1445 1446 1446 1446 1446 1447 1447 1448 1449 1449
1484 1484 1481 1477 1470 1460 1452 1459 1460 1461 1454 1451 1451 1451 1450 1450 1447 1445 1445 1444 1442 1442 1441 1440 1440 1440 1440 1441 1441 1441 1440 1441 1441 1442 1442 1442 1442 1443 1443 1443 1444 1445 1445 1445
1480 1479 1477 1473 1467 1455 1456 1458 1459 1457 1449 1449 1449 1448 1448 1448 1447 1445 1443 1442 1440 1439 1438 1437 1437 1437 1437 1437 1438 1437 1437 1438 1438 1439 1439 1439 1439 1439 1440 1440 1441 1441 1442 1442
1469 1470 1472 1469 1465 1456 1455 1456 1455 1449 1449 1448 1447 1446 1446 1445 1443 1442 1441 1439 1438 1436 1435 1435 1434 1434 1434 1434 1434 1434 1434 1434 1435 1435 1435 1435 1435 1436 1436 1437 1437 1438 1438 1438
1466 1463 1459 1459 1454 1451 1452 1451 1450 1449 1447 1445 1445 1444 1443 1442 1441 1440 1438 1437 1436 1435 1434 1433 1432 1431 1431 1431 1431 1431 1431 1431 1431 1431 1431 1432 1432 1432 1433 1433 1434 1434 1434 1434
1461 1462 1460 1456 1450 1450 1449 1448 1447 1446 1445 1443 1442 1441 1440 1439 1438 1437 1436 1434 1433 1432 1431 1430 1429 1428 1428 1428 1427 1427 1427 1427 1427 1427 1427 1428 1428 1428 1429 1429 1430 1430 1430 1430
1456 1458 1456 1452 1448 1447 1444 1444 1443 1443 1441 1440 1439 1438 1437 1436 1435 1434 1433 1431 1430 1429 1428 1427 1426 1425 1424 1424 1423 1423 1423 1423 1423 1423 1423 1424 1424 1425 1425 1426 1426 1426 1427 1427
1453 1452 1450 1444 1444 1444 1441 1441 1440 1439 1437 1436 1435 1434 1433 1433 1431 1430 1429 1428 1427 1426 1425 1424 1423 1422 1421 1420 1419 1419 1419 1419 1419 1419 1419 1420 1420 1421 1421 1422 1422 1422 1423 1424